Regional Weather Roundup
Issued by NWS State College, PA

Home | Current Version | Previous Version | Text Only | Print | Product List | Glossary Off
Versions: 1 2 3 4 5 6 7 8 9 10 11 12 13 14 15 16 17 18 19 20 21 22 23 24 25 26 27 28 29 30 31 32 33 34 35 36 37 38 39 40 41 42 43 44 45 46 47 48 49 50

000
ASUS41 KCTP 220303
RWRCTP

REGIONAL WEATHER ROUNDUP
NATIONAL WEATHER SERVICE STATE COLLEGE PA
1100 PM EDT TUE OCT 21 2014

Note: "fair" indicates few or no clouds below 12,000 feet with no
significant weather and/or obstructions to visibility.

* = STATION THAT DOES NOT REPORT PRECIPITATION /E.G. RAIN...SNOW...ETC/
    THUNDER OR FOG.

PAZ002>004-007>009-013>016-020>023-029>032-220400-
WESTERN PENNSYLVANIA

CITY           SKY/WX    TMP DP  RH WIND       PRES   REMARKS
ERIE           LGT RAIN  48  44  86 NE17G26   30.09R FOG
MEADVILLE      CLOUDY    46  44  93 N9G20     30.04R
FRANKLIN*      CLOUDY    46  43  87 N5        30.04R
NEW CASTLE       N/A     48  46  93 N8        30.06R
BEAVER COUNTY  NOT AVBL
BUTLER*        CLOUDY    46  45  93 NW3       30.04S
PITTSBURGH INT DRIZZLE   47  46  97 NW8       30.03R
PITTSBURGH     LGT RAIN  48  43  82 NW7       30.01R
INDIANA*       CLOUDY    48  46  93 VRB5      30.03S FOG
LATROBE        NOT AVBL
WASHINGTON CO* CLOUDY    46  43  87 NW6       30.05R
$$

PAZ004>006-010>012-017>019-024>028-033>037-041-042-045-046-049>053-220400-
CENTRAL PENNSYLVANIA

CITY           SKY/WX    TMP DP  RH WIND       PRES   REMARKS
BRADFORD       CLOUDY    47  44  90 N8        30.00R
DUBOIS         CLOUDY    47  46  97 N8        29.98S
CLEARFIELD     CLOUDY    49  46  90 N6        29.98R
JOHNSTOWN      LGT RAIN  45  43  93 NW12      29.97R FOG
ALTOONA        LGT RAIN  49  47  93 CALM      29.97R
STATE COLLEGE  CLOUDY    50  47  90 CALM      29.97R
WILLIAMSPORT   CLOUDY    51  47  86 SW3       29.95R
SELINSGROVE    MOCLDY    51  47  86 CALM      29.95R
FT INDIANTOWN  CLOUDY    56  53  89 VRB2      29.92R
CAPITAL CITY   CLOUDY    53  48  83 W6        29.93R
HARRISBURG     CLOUDY    53  48  83 NW8       29.92R
YORK           CLOUDY    51  50  96 W3        29.92R
$$

PAZ038>040-043-044-047-048-054-055-060>062-067>071-220400-
EASTERN PENNSYLVANIA

CITY           SKY/WX    TMP DP  RH WIND       PRES   REMARKS
SCRANTON       CLOUDY    51  48  89 CALM      29.95R FOG
MOUNT POCONO   CLOUDY    50  47  89 NE7       29.93R
ALLENTOWN      MOCLDY    53  49  86 NE5       29.92R
QUAKERTOWN*    MOCLDY    52  50  93 NE3       29.92S
READING        CLOUDY    56  49  77 N5        29.90S
LANCASTER      CLOUDY    54  49  83 W3        29.91R
COATESVILLE    CLOUDY    55  50  82 N6        29.91R
POTTSTOWN      CLOUDY    55  50  83 N5        29.91S
BLUE BELL      MOCLDY    57  52  82 NE3       29.89R
DOYLESTOWN     LGT RAIN  51  51 100 NE7       29.90S
WILLOW GROVE   NOT AVBL
NORTH PHILA    CLOUDY    58  49  72 NE8       29.91R
PHILADELPHIA   MOCLDY    60  52  74 NE10      29.88S
$$



USA.gov is the U.S. government's official web portal to all federal, state and local government web resources and services.